Weather History for KONL - August, 2013

Change the Weather History Date:

Tuesday, August 6, 2013

  Actual Average Record
Temperature  
Mean Temperature 74 °F -  
Max Temperature 85 °F 86 °F 100 °F (1968)
Min Temperature 63 °F 61 °F 47 °F (1989)
Cooling Degree Days 9    
Growing Degree Days 24 (Base 50)    
Moisture  
Dew Point 63 °F    
Average Humidity 69    
Maximum Humidity 90    
Minimum Humidity 42    
Precipitation  
Precipitation 1.97 in - - ()
Sea Level Pressure  
Sea Level Pressure 29.90 in    
Wind  
Wind Speed 6 mph (NNW)    
Max Wind Speed 17 mph    
Max Gust Speed 51 mph    
Visibility 9 miles    
Events Rain , Thunderstorm    
Averages and records for this station are not official NWS values.
T = Trace of Precipitation, MM = Missing Value Source: NWS Daily Summary

Daily Weather History Graph

Daily Weather History Graph

Search for Another Location

Airport or City:

Trip Planner

Search our weather history database for the weather conditions in past years. The results will help you decide how hot, cold, wet, or windy it might be!

Date:

Astronomy

Aug. 06, 2013 Rise Set
Actual Time 6:32 AM CDT 8:48 PM CDT
Civil Twilight 6:01 AM CDT 9:19 PM CDT
Nautical Twilight 5:22 AM CDT 9:57 PM CDT
Astronomical Twilight 4:39 AM CDT 10:40 PM CDT
Moon 6:26 AM CDT (8/6) 8:21 PM CDT (8/6)
Length of Visible Light 15h 17m
Length of Day
14h 15m
Waning Crescent, 0% of the Moon is Illuminated
Aug 6
Waning Crescent
Aug 6
New
Aug 14
First Quarter
Aug 20
Full
Aug 28
Last Quarter

Hourly Weather History & Observations

Time (CDT) Temp. Heat Index Dew Point Humidity Pressure Visibility Wind Dir Wind Speed Gust Speed Precip Events Conditions
12:15 AM 68.5 °F - 64.9 °F 88% 29.91 in 10.0 mi SSE 3.5 mph - N/A   Clear
12:35 AM 68.0 °F - 64.8 °F 89% 29.91 in 7.0 mi Calm Calm - N/A   Clear
12:55 AM 68.4 °F - 64.9 °F 89% 29.90 in 10.0 mi SE 3.5 mph - N/A   Clear
1:15 AM 68.9 °F - 65.3 °F 88% 29.90 in 10.0 mi SE 4.6 mph - N/A   Clear
1:35 AM 69.3 °F - 65.3 °F 87% 29.90 in 10.0 mi East 4.6 mph - N/A   Scattered Clouds
1:55 AM 70.2 °F - 65.7 °F 86% 29.91 in 10.0 mi ESE 4.6 mph - N/A   Mostly Cloudy
2:15 AM 70.9 °F - 66.2 °F 85% 29.92 in 10.0 mi NE 3.5 mph - N/A   Overcast
2:35 AM 70.7 °F - 66.4 °F 86% 29.92 in 10.0 mi ENE 4.6 mph - N/A   Overcast
2:55 AM 70.0 °F - 66.2 °F 88% 29.91 in 7.0 mi Calm Calm - N/A   Mostly Cloudy
3:15 AM 70.0 °F - 66.0 °F 87% 29.91 in 10.0 mi NE 4.6 mph - N/A   Mostly Cloudy
3:35 AM 70.2 °F - 65.8 °F 86% 29.89 in 10.0 mi ENE 6.9 mph - N/A   Overcast
3:55 AM 70.9 °F - 66.0 °F 85% 29.89 in 10.0 mi Calm Calm - N/A Rain , Thunderstorm Thunderstorms and Rain
4:15 AM 65.5 °F - 59.7 °F 82% 29.92 in 0.5 mi NNE 11.5 mph 50.6 mph 0.93 in Rain , Thunderstorm Heavy Thunderstorms and Rain
4:35 AM 63.7 °F - 60.1 °F 88% 29.90 in 2.0 mi East 13.8 mph 19.6 mph 1.44 in Rain Heavy Rain
4:55 AM 65.5 °F - 62.4 °F 90% 29.91 in 2.0 mi NNE 12.7 mph - 1.76 in Rain , Thunderstorm Rain
5:15 AM 65.7 °F - 62.6 °F 90% 29.96 in 5.0 mi NNW 4.6 mph - 0.10 in Rain , Thunderstorm Heavy Thunderstorms and Rain
5:35 AM 67.6 °F - 61.7 °F 81% 29.94 in 7.0 mi NNE 8.1 mph - 0.17 in Rain , Thunderstorm Light Thunderstorms and Rain
5:55 AM 67.3 °F - 63.9 °F 89% 29.95 in 10.0 mi North 4.6 mph - 0.17 in   Overcast
6:15 AM 66.7 °F - 63.5 °F 89% 29.98 in 7.0 mi NW 10.4 mph - 0.01 in Rain Heavy Rain
6:35 AM 67.1 °F - 64.2 °F 90% 29.98 in 7.0 mi NNW 17.3 mph 23.0 mph 0.04 in Rain Light Rain
6:55 AM 66.4 °F - 60.3 °F 81% 29.97 in 10.0 mi North 15.0 mph - 0.04 in   Mostly Cloudy
7:15 AM 65.5 °F - 58.8 °F 79% 29.92 in 10.0 mi SE 4.6 mph - N/A Rain Light Rain
7:35 AM 65.3 °F - 59.0 °F 80% 29.90 in 10.0 mi Calm Calm - N/A   Clear
7:55 AM 66.7 °F - 60.4 °F 80% 29.89 in 10.0 mi SSE 3.5 mph - N/A   Clear
8:15 AM 67.8 °F - 60.8 °F 78% 29.89 in 10.0 mi South 5.8 mph - N/A   Clear
8:35 AM 68.7 °F - 61.5 °F 78% 29.88 in 10.0 mi South 6.9 mph - N/A   Clear
8:55 AM 69.1 °F - 61.3 °F 76% 29.87 in 10.0 mi South 8.1 mph - N/A   Clear
9:15 AM 69.3 °F - 62.6 °F 79% 29.86 in 10.0 mi South 9.2 mph - N/A   Clear
9:35 AM 71.6 °F - 63.9 °F 76% 29.86 in 10.0 mi South 11.5 mph - N/A   Clear
9:55 AM 72.9 °F - 62.8 °F 71% 29.87 in 10.0 mi South 12.7 mph - N/A   Scattered Clouds
10:15 AM 73.4 °F - 62.4 °F 68% 29.86 in 10.0 mi South 15.0 mph 18.4 mph N/A   Scattered Clouds
10:35 AM 74.1 °F - 60.8 °F 63% 29.86 in 10.0 mi South 11.5 mph 21.9 mph N/A   Clear
10:55 AM 76.3 °F - 61.5 °F 60% 29.86 in 10.0 mi South 15.0 mph 20.7 mph N/A   Clear
11:15 AM 77.2 °F - 59.7 °F 55% 29.87 in 10.0 mi South 9.2 mph - N/A   Clear
11:35 AM 76.5 °F - 59.5 °F 56% 29.87 in 10.0 mi South 11.5 mph - N/A   Scattered Clouds
11:55 AM 78.8 °F - 61.5 °F 55% 29.87 in 10.0 mi South 11.5 mph - N/A   Scattered Clouds
12:15 PM 79.9 °F - 62.1 °F 54% 29.87 in 10.0 mi South 9.2 mph 18.4 mph N/A   Scattered Clouds
12:35 PM 81.1 °F 82.1 °F 62.1 °F 52% 29.87 in 10.0 mi SSW 9.2 mph - N/A   Clear
12:55 PM 82.0 °F 82.7 °F 61.3 °F 49% 29.88 in 10.0 mi South 9.2 mph - N/A   Clear
1:15 PM 82.4 °F 82.6 °F 59.9 °F 46% 29.88 in 10.0 mi SSW 8.1 mph - N/A   Clear
1:35 PM 83.8 °F 83.6 °F 59.4 °F 43% 29.89 in 10.0 mi WSW 4.6 mph - N/A   Clear
1:55 PM 84.2 °F 83.8 °F 59.0 °F 42% 29.88 in 10.0 mi WSW 4.6 mph - N/A   Scattered Clouds
2:15 PM 84.0 °F 83.6 °F 58.8 °F 42% 29.89 in 10.0 mi Calm Calm - N/A   Scattered Clouds
2:35 PM 85.3 °F 85.4 °F 61.3 °F 44% 29.88 in 10.0 mi SW 9.2 mph - N/A   Scattered Clouds
2:55 PM 84.6 °F 85.2 °F 62.1 °F 47% 29.88 in 10.0 mi West 6.9 mph - N/A   Clear
3:15 PM 85.1 °F 85.2 °F 61.0 °F 44% 29.88 in 10.0 mi West 6.9 mph - N/A   Clear
3:35 PM 85.5 °F 86.1 °F 62.2 °F 46% 29.88 in 10.0 mi NW 8.1 mph - N/A   Clear
3:55 PM 83.8 °F 85.1 °F 64.0 °F 51% 29.88 in 10.0 mi NW 5.8 mph - N/A   Mostly Cloudy
4:15 PM 84.2 °F 85.2 °F 63.3 °F 49% 29.88 in 10.0 mi NW 9.2 mph - N/A   Mostly Cloudy
4:35 PM 84.9 °F 86.8 °F 65.3 °F 52% 29.88 in 10.0 mi NW 6.9 mph - N/A   Mostly Cloudy
4:55 PM 84.7 °F 85.6 °F 62.8 °F 48% 29.88 in 10.0 mi NW 8.1 mph - N/A   Scattered Clouds
5:15 PM 85.3 °F 86.4 °F 63.3 °F 48% 29.88 in 10.0 mi NW 6.9 mph - N/A   Scattered Clouds
5:35 PM 84.9 °F 85.6 °F 62.8 °F 47% 29.88 in 10.0 mi North 5.8 mph - N/A   Clear
5:55 PM 84.4 °F 85.0 °F 62.4 °F 47% 29.88 in 10.0 mi North 6.9 mph - N/A   Clear
6:15 PM 84.6 °F 85.9 °F 64.0 °F 50% 29.88 in 10.0 mi NNW 8.1 mph - N/A   Clear
6:35 PM 84.2 °F 85.4 °F 63.7 °F 50% 29.88 in 10.0 mi North 5.8 mph - N/A   Clear
6:55 PM 83.1 °F 84.6 °F 64.6 °F 53% 29.88 in 10.0 mi North 5.8 mph - N/A   Clear
7:15 PM 82.2 °F 83.8 °F 64.4 °F 55% 29.88 in 10.0 mi Calm Calm - N/A   Clear
7:35 PM 82.2 °F 84.6 °F 66.6 °F 59% 29.88 in 10.0 mi Calm Calm - N/A   Clear
7:55 PM 80.6 °F 83.2 °F 67.6 °F 65% 29.88 in 10.0 mi NNW 3.5 mph - N/A   Clear
8:15 PM 79.5 °F - 68.4 °F 69% 29.89 in 10.0 mi NW 4.6 mph - N/A   Scattered Clouds
8:35 PM 76.8 °F - 67.8 °F 74% 29.89 in 10.0 mi NNW 3.5 mph - N/A   Scattered Clouds
8:55 PM 74.8 °F - 66.7 °F 76% 29.90 in 10.0 mi NNW 3.5 mph - N/A   Clear
9:15 PM 74.1 °F - 66.2 °F 76% 29.90 in 10.0 mi NNW 4.6 mph - N/A   Clear
9:35 PM 72.0 °F - 64.9 °F 78% 29.92 in 10.0 mi North 9.2 mph - N/A   Clear
9:55 PM 72.0 °F - 63.7 °F 75% 29.93 in 10.0 mi North 5.8 mph - N/A   Clear
10:15 PM 71.1 °F - 63.7 °F 77% 29.95 in 10.0 mi North 9.2 mph - N/A   Clear
10:35 PM 70.9 °F - 62.2 °F 74% 29.95 in 10.0 mi North 6.9 mph - N/A   Clear
10:55 PM 69.6 °F - 61.5 °F 75% 29.95 in 10.0 mi North 4.6 mph - N/A   Clear
11:15 PM 68.0 °F - 62.2 °F 82% 29.95 in 10.0 mi NNW 3.5 mph - N/A   Clear
11:35 PM 68.2 °F - 62.2 °F 81% 29.96 in 10.0 mi Calm Calm - N/A   Clear
11:55 PM 67.6 °F - 62.1 °F 82% 29.96 in 10.0 mi Calm Calm - N/A   Clear